Terminal Aerodrome Forecast
Issued by NWS

Home | Current Version | Previous Version | Text Only | Print | Product List | Glossary On
Versions: 1 2 3 4 5 6 7 8 9 10 11 12 13
000
FTUS45 KGGW 251400 AAA
TAFSDY
TAF AMD
KSDY 251437Z 2515/2612 30010KT 5SM -SHRA BR BKN015 BKN060
     FM251700 30011KT P6SM BKN060
     FM260000 VRB06KT P6SM SCT060
     FM260900 00000KT 1SM BR SCT001
      AMD LTD TO CLD VIS AND WIND=

USA.gov is the U.S. government's official web portal to all federal, state and local government web resources and services.